Weather Service Report


242 
ASUS44 KLUB 191810
RWRTX 
WEST TEXAS WEATHER ROUNDUP
NATIONAL WEATHER SERVICE LUBBOCK TX
100 PM CDT SUN APR 19 2015

NOTE: "FAIR" INDICATES FEW OR NO CLOUDS BELOW 12,000 FEET WITH NO
SIGNIFICANT WEATHER AND/OR OBSTRUCTIONS TO VISIBILITY.

TXZ004-006>008-010-012-014-016-OKZ002-191900-
TEXAS PANHANDLE/OKLAHOMA PANHANDLE
  
CITY           SKY/WX    TMP DP  RH WIND       PRES   REMARKS
AMARILLO       CLOUDY    54  38  54 N30G39    29.98S                  
BORGER         CLOUDY    53  39  59 N30G39    29.99R                  
DALHART        CLOUDY    52  34  50 N35G45    30.05R                  
DUMAS          CLOUDY    49  36  61 N39G46    30.00F                  
GUYMON         CLOUDY    53  37  54 N32G48    29.97S                  
HEREFORD       CLOUDY    56  39  53 N33       30.02R                  
PAMPA          CLOUDY    53  41  65 N31G38    29.95S                  
PERRYTON       CLOUDY    52  43  72 N32G43    29.93R                  
$$

TXZ026-029-035-045-048-191900-
SOUTHERN PANHANDLE/SOUTH PLAINS/ROLLING PLAINS
  
CITY           SKY/WX    TMP DP  RH WIND       PRES   REMARKS
CHILDRESS      MOSUNNY   67  44  43 N21G39    29.87F                  
SEMINOLE       SUNNY     69  31  24 N20G28    30.00F                  
LUBBOCK        MOSUNNY   65  38  36 N28G37    29.96R                  
PLAINVIEW      MOSUNNY   60  38  44 N25G37    29.95S                  
SNYDER         SUNNY    N/A N/A N/A W20G28    29.94S                  
$$

TXZ052-054-060>062-072-078-127-140-154-169-191900-
PERMIAN BASIN/CONCHO VALLEY/BIG COUNTRY/EDWARDS PLATEAU  
  
CITY           SKY/WX    TMP DP  RH WIND       PRES   REMARKS
ABILENE        SUNNY     72  43  35 NW13G26   29.89R                  
BIG SPRING     MOSUNNY   74  32  21 NW20G25   29.97F                  
BRADY          SUNNY     75  45  33 W15       29.88R                  
BROWNWOOD      SUNNY     73  52  46 NW12G20   29.86S                  
JUNCTION       SUNNY     81  42  25 NW13      29.87F                  
MIDLAND        SUNNY     72  35  25 N18G26    29.97S                  
ODESSA         SUNNY     72  31  22 N18G24    29.98F                  
SAN ANGELO     SUNNY     76  47  35 N13       29.90S                  
SONORA         SUNNY     79  37  22 NW12G17   29.94F                  
SWEETWATER     SUNNY     70  39  32 NW17G23   29.94F                  
WINK           SUNNY     75  30  19 N14G23    29.97F                  
$$

TXZ055-058-074-075-080-082-191900-
FAR WEST/SOUTHWEST MOUNTAINS/TRANS PECOS
  
CITY           SKY/WX    TMP DP  RH WIND       PRES   REMARKS
ALPINE         SUNNY     74  23  14 N9G23     30.06F                  
DRYDEN           N/A     81  36  19 SE9       29.90F                  
EL PASO        MOSUNNY   72  25  17 W7        30.01F                  
FORT STOCKTON  SUNNY     73  32  22 N10       29.99S                  
GUADALUPE PASS SUNNY     64  30  27 SE13G22   30.08S                  
MARFA          SUNNY     73  21  14 W16G24    30.06S                  
PECOS          SUNNY     75  33  21 N10G21    29.98S                  
$$

TXZ014-016-019-021>030-083-191900
TEXAS TECH WEST TEXAS MESONET/TEXAS PANHANDLE/NORTHERN SOUTH PLAINS
  
CITY           SKY/WX    TMP DP  RH WIND       PRES   REMARKS
ABERNATHY 5ENE   N/A     62  38  41 N24       29.97S                  
AMARILLO 9NNE    N/A     54  38  53 N25       30.00R                  
AMARILLO 7SSE    N/A     55  38  54 N28       30.00R                  
AMHERST 1NE      N/A     61  35  38 N28       30.00R                  
BOOTLEG 11WNW    N/A     54  34  45 N33       30.07R                  
CANADIAN 6E      N/A     59  44  58 NW23      29.88R                  
CAPROCK CYN SP   N/A     61  40  45 N20G30    29.94R                  
CHILDRESS 2NNE   N/A     67  42  39 NW25      29.86S                  
CLARENDON 2WSW   N/A     60  40  48 N31       29.93R                  
CLAUDE 12SW      N/A     57  38  49 NW31      29.96R                  
DIMMITT 2NE      N/A     55  37  50 N28       30.01R                  
FLOYDADA 2NNE    N/A     62  38  40 N21       29.95R                  
FRIONA 2NE       N/A     57  35  42 N30G43    30.04R                  
GOODLETT 3W      N/A     69  42  38 NW20      29.84F                  
HART 3N          N/A     57  36  45 N29G39    29.99R                  
HEREFORD 2NW     N/A     54  35  49 N30       30.02R                  
MCLEAN 1E        N/A     58  43  57 NW31G45   29.88R                  
MEMPHIS 1NE      N/A     63  44  49 N26       29.89S                  
MULESHOE 2SSW    N/A     60  36  40 NW21      30.02R                  
OLTON 6S         N/A     61  36  39 N26       29.98R                  
PALO DURO SP     N/A     58  39  49 N20       29.98S                  
PAMPA 2E         N/A     54  42  64 NW31      29.92F                  
PLAINVIEW 1S     N/A     61  38  43 N22       29.96S                  
SILVERTON 7ESE   N/A     60  39  45 N28       29.94R                  
TULIA 2ENE       N/A     58  38  48 N30       29.97S                  
UMBARGER 3NNE    N/A     54  37  53 NW29      30.01R                  
$$

TXZ033>036-039>041-045>048-191900
TEXAS TECH WEST TEXAS MESONET/SOUTH PLAINS  
  
CITY           SKY/WX    TMP DP  RH WIND       PRES   REMARKS
AIKEN 3WSW       N/A     61  38  42 N31       29.97S                  
ANDREWS 2NE      N/A     70  29  21 N18       29.99F                  
ANTON 6SSW       N/A     63  38  40 N25G35    29.99R                  
BROWNFIELD 2S    N/A     64  34  32 N24       29.99S                  
DENVR CTY 7WNW   N/A     66  29  25 N21       30.00F                  
GAIL 2ESE        N/A     70  37  30 NW22      29.93F                  
LAMESA 2SE       N/A     69  35  28 NW17      29.97F                  
LEVELLAND 4S     N/A     64  36  34 N26       29.99F                  
LUBBOCK 3WNW     N/A     65  37  34 N21       29.98S                  
MORTON 1ENE      N/A     64  34  32 N25G35    30.00S                  
ODONNELL 1N      N/A     67  33  28 NW23      29.97S                  
PLAINS 3N        N/A     65  34  32 NW23      30.01S                  
RALLS 1SE        N/A     63  38  40 NW21      29.96S                  
REESE CENTER     N/A     64  36  36 N25       29.98S                  
SEAGRAVES 1SW    N/A     67  33  28 N17G29    29.99F                  
SEMINOLE 2NNE    N/A     68  31  25 NW16      29.99F                  
SLATON 2NE       N/A     64  38  37 N20G31    29.97S                  
SNYDER 3E        N/A     71  37  28 NW22      29.91F                  
SUNDOWN 8SW      N/A     65  36  34 NW20      30.00S                  
TAHOKA 3NNE      N/A     67  37  33 N18       29.97S                  
WOLFFORTH 6SSW   N/A     65  37  36 N22       29.99S                  
$$

TXZ031-032-036>038-042>044-191900-
TEXAS TECH WEST TEXAS MESONET/ROLLING PLAINS 
  
CITY           SKY/WX    TMP DP  RH WIND       PRES   REMARKS
ASPERMONT 3NE    N/A     73  39  28 NW17      29.87S                  
FLUVANNA 3WNW    N/A     69  37  30 NW20G29   29.94S                  
GRAHAM 5SSW      N/A     65  38  36 NW24      29.95S                  
GUTHRIE 10WSW    N/A     68  40  36 NW22      29.89R                  
HASKELL 1NW      N/A     71  42  35 NW16      29.86S                  
KNOX CITY 3NW    N/A     72  39  29 NW17      29.86S                  
LK A HENRY 1NW   N/A     69  42  37 NW22G32   29.92F                  
NORTHFIELD 1S    N/A     67  44  43 NW23      29.89F                  
ODELL 4ENE       N/A     69  46  43 W16       29.83S                  
PADUCAH 10SW     N/A     67  41  38 NW24G35   29.89S                  
POST 1NE         N/A     67  40  37 NW17      29.95S                  
RRING SPRGS 3N   N/A     63  42  44 NW25      29.92S                  
SEYMOUR 3NW      N/A     73  40  31 W17       29.83S                  
SPUR 1W          N/A     66  40  37 N21       29.91S                  
WEINERT 2NNE     N/A     72  44  36 NW16      29.86S                  
WHITE RVR 6NE    N/A     66  40  38 NW22G35   29.93S                  
$$

TXZ052-054-060>062-072-078-127-140-154-169-191900-
TEXAS TECH WEST TEXAS MESONET/PERMIAN BASIN/
CONCHO VALLEY/BIG COUNTRY/EDWARDS PLATEAU
  
CITY           SKY/WX    TMP DP  RH WIND       PRES   REMARKS
COYANOSA 2N      N/A     76  34  21 N12       29.97F                  
JUNCTION 1SSW    N/A     81  43  26 NW9       29.87F                  
MERTZON 3NNE     N/A     77  40  26 N10       29.92F                  
SAN ANGELO 7NW   N/A     73  45  36 NW10      29.91S                  
STRLNG CT 4WSW   N/A     74  37  26 W10       29.94S                  
ST LAWRNCE 5SW   N/A     72  33  24 NW17      29.95S                  
SWEETWATR 11SW   N/A     70  40  33 NW16      29.93F                  
WALL 1E          N/A     71  48  44 N7        29.92S                  
$$

TXZ055-058-074-075-080-082-191900-
TEXAS TECH WEST TEXAS MESONET/FAR WEST/SOUTHWEST MOUNTAINS/TRANS PECOS
  
CITY           SKY/WX    TMP DP  RH WIND       PRES   REMARKS
PRSMN GAP BBNP   N/A     81  27  14 W6        29.94F                  
$$

Return to Home page


Western Regional Climate Center, wrcc@dri.edu